User: anonymous   Login
Location: Tyler Bend Campground
(35.9875°N, 92.7606°W)
Time: 10:34:07
(UTC-05:00)
Language:

CZ-2C R/B - Orbit

View from above orbital plane
View from above orbital plane
View from above satellite
View from above satellite

Ground track
Ground track

The orbit data is extracted from the following two-line orbital elements,

1 36089U 09061B   18172.90665669 -.00000004 +00000-0 +10363-4 0  9990
2 36089 098.0721 163.7001 0081793 348.2074 066.4129 14.49735352455183
Epoch (UTC): 21 June 2018 21:45:35
Eccentricity: 0.0081793
inclination: 98.0721°
perigee height: 668 km
apogee height: 784 km
right ascension of ascending node: 163.7001°
argument of perigee: 348.2074°
revolutions per day: 14.49735352
mean anomaly at epoch: 66.4129°
orbit number at epoch: 45518

The dashed part of the orbit path shows where the satellite is in the earth's shadow,  

DLR